[[{"header":{"parameterUnit":"m.s-1","parameterCategory":1,"la1":30.2991,"la2":30.254,"lo1":-89.0895,"lo2":-89.0444,"dy":0.0017,"dx":0.0017,"nx":28,"ny":28,"refTime":"2025-04-11T09:00:00:Z","depth":0,"parameterNumber":2,"parameterNumberName":"U-component_of_WINDS"},"data":[0,0,0,0,0,0,0,0,0,0,0,0,0,0,0,0,0,0,0,0,0,0,0,0,0,0,0,0,0,0,0,0,0,0,0,0,0,0,0,0,0,0,0,0,0,0,0,0,0,0,0,0,0,0,0,0,0,0,0.1472,0.1472,0,0.141,0.1409,0.1408,0.137,0.137,0.137,0.137,0.1307,0.1306,0.1304,0,0,0,0,0,0,0,0,0,0,0,0,0,0.1561,0.156,0.1472,0.1472,0.1471,0.141,0.1409,0.1408,0.137,0.137,0.137,0.137,0.1308,0.1306,0.1304,0,0,0,0,0,0,0,0,0,0,0,0,0,0.1513,0.1559,0.1473,0.1444,0.1441,0.141,0.1409,0.1408,0.137,0.137,0.137,0.1369,0.1308,0.1306,0.1304,0.1296,0,0,0.1297,0.1296,0,0,0,0,0,0,0,0,0.1516,0.151,0.1449,0.1446,0.1443,0.1397,0.1417,0.1371,0.137,0.1397,0.137,0.1369,0.1338,0.1333,0.1322,0.1293,0.1291,0.1297,0.1296,0.1295,0.1294,0,0,0,0,0,0,0,0.1519,0.1512,0.1448,0.1449,0.1445,0.1436,0.1429,0.1408,0.137,0.1395,0.1392,0.1385,0.1336,0.1324,0.132,0.129,0.1297,0.1295,0.1294,0.1293,0.1254,0.1254,0,0,0,0,0,0,0.1527,0.1515,0.145,0.1446,0.1479,0.1434,0.1426,0.1412,0.137,0.1363,0.1385,0.1384,0.1328,0.1323,0.1318,0.1307,0.1295,0.1293,0.1291,0.1253,0.1254,0.1254,0,0,0,0,0,0,0.1529,0.1521,0.1452,0.148,0.147,0.1433,0.1418,0.1411,0.14,0.1363,0.1356,0.138,0.1328,0.1321,0.1302,0.1304,0.1292,0.129,0.1253,0.1253,0.1254,0.1285,0,0,0,0,0,0,0.1531,0.1522,0.1518,0.148,0.1469,0.1437,0.1418,0.141,0.1396,0.1393,0.1356,0.135,0.1327,0.1306,0.13,0.1301,0.1288,0.1253,0.1253,0.1254,0.1284,0.1286,0.1289,0,0,0,0,0,0.1535,0.153,0.1518,0.151,0.1463,0.1437,0.1431,0.1404,0.1396,0.1392,0.1369,0.1351,0.1305,0.1304,0.1297,0.1298,0.1252,0.1253,0.1254,0.1282,0.1286,0.1289,0,0,0,0,0,0,0.1569,0.1524,0.1511,0.1493,0.1469,0.1431,0.1425,0.1408,0.1386,0.1384,0.1352,0.1345,0.1329,0.1312,0.1311,0.1289,0.1277,0.1276,0.1301,0.1304,0.1307,0.1311,0.1286,0,0,0,0,0,0.1575,0.1557,0.1518,0.1506,0.1495,0.1462,0.145,0.1431,0.1405,0.1395,0.137,0.1347,0.1327,0.1314,0.1294,0.1281,0.1273,0.1278,0.1281,0.1283,0.1283,0.1276,0.1278,0.1256,0.1256,0.1256,0,0,0.1586,0.1559,0.155,0.1513,0.1492,0.1475,0.1454,0.1436,0.1424,0.1393,0.1373,0.1355,0.1326,0.1311,0.1302,0.1295,0.1288,0.1284,0.1286,0.1285,0.1277,0.1279,0.1281,0.1256,0.1256,0.1256,0,0,0.1598,0.1575,0.1563,0.1543,0.1512,0.149,0.1488,0.1452,0.1438,0.1418,0.1395,0.138,0.1346,0.1327,0.1313,0.1319,0.1303,0.1314,0.1327,0.1321,0.1323,0.1324,0.1328,0.1329,0.1314,0.1314,0.1314,0,0.1616,0.1588,0.1559,0.1543,0.1528,0.1499,0.1488,0.147,0.1434,0.1425,0.1417,0.1375,0.1354,0.1334,0.1336,0.1325,0.1322,0.1318,0.1325,0.1326,0.1327,0.133,0.1331,0.1315,0.1315,0.1315,0.1315,0,0.1613,0.1594,0.1588,0.1554,0.1539,0.1525,0.1495,0.1483,0.1466,0.1445,0.1427,0.14,0.1374,0.1368,0.1351,0.1347,0.1343,0.1331,0.1318,0.1331,0.1333,0.1334,0.1317,0.1317,0.1316,0.1316,0,0,0.1644,0.1595,0.1593,0.1578,0.1542,0.1528,0.1514,0.1488,0.1479,0.1456,0.1444,0.1416,0.1405,0.1389,0.137,0.1364,0.1373,0.1353,0.1352,0.1358,0.1367,0.1377,0.1379,0.1361,0.1361,0.1361,0.137,0,0.1651,0.1623,0.1597,0.1579,0.1562,0.1535,0.1523,0.15,0.1481,0.1465,0.1444,0.1426,0.1411,0.1402,0.1395,0.1373,0.1374,0.1372,0.1351,0.1351,0.136,0.138,0.139,0.1399,0.1371,0.1371,0.1371,0,0.1656,0.1633,0.1614,0.1581,0.1573,0.1562,0.1537,0.1522,0.1496,0.1483,0.1466,0.1446,0.1431,0.142,0.1399,0.1398,0.1388,0.1376,0.1376,0.1374,0.1362,0.1379,0.1402,0.1403,0.1372,0.1371,0.1371,0,0.1682,0.1647,0.1631,0.1619,0.1579,0.1573,0.1556,0.153,0.1517,0.1496,0.1487,0.1465,0.1453,0.1437,0.1412,0.1406,0.1394,0.1381,0.1384,0.1385,0.1383,0.1384,0.1405,0.1376,0.1376,0.1376,0.1375,0,0.1693,0.1682,0.1642,0.1632,0.162,0.1591,0.158,0.1561,0.1538,0.1525,0.15,0.1489,0.1456,0.1442,0.1422,0.1409,0.1403,0.1393,0.1388,0.1396,0.1397,0.1389,0.1388,0.1376,0.1376,0.1376,0.1376,0,0.172,0.1693,0.1673,0.1638,0.1629,0.1622,0.1592,0.1582,0.1562,0.1546,0.154,0.1509,0.149,0.1464,0.1437,0.1424,0.1414,0.1406,0.1423,0.142,0.1425,0.1425,0.1443,0.1444,0.1413,0.1413,0.1414,0,0.1729,0.172,0.1684,0.1673,0.1658,0.164,0.1627,0.1598,0.1586,0.1557,0.1551,0.153,0.1512,0.1484,0.1459,0.1439,0.143,0.1438,0.1427,0.1435,0.1432,0.1433,0.1432,0.1441,0.1441,0.1442,0.1442,0,0.1748,0.1736,0.1717,0.1694,0.1679,0.1659,0.1639,0.1632,0.1599,0.1586,0.1567,0.1553,0.1526,0.1506,0.1483,0.1467,0.145,0.1445,0.1445,0.1453,0.1464,0.1459,0.1431,0.1445,0.1445,0.1445,0.1444,0.1444,0.1767,0.1759,0.1732,0.1713,0.1694,0.1676,0.1665,0.1644,0.1627,0.1602,0.1587,0.1568,0.1544,0.1511,0.1496,0.1482,0.1475,0.1475,0.1475,0.1475,0.1478,0.1466,0.1478,0.1478,0.1478,0.1478,0.1477,0,0.1786,0.1768,0.175,0.1723,0.1708,0.1692,0.1669,0.1658,0.1642,0.1621,0.1604,0.1582,0.1563,0.1537,0.1517,0.1511,0.1503,0.1507,0.1507,0.1504,0.1485,0.1488,0.1514,0.1514,0.1514,0.1514,0.1514,0.1514,0.1795,0.1779,0.1764,0.174,0.1722,0.1703,0.1692,0.1676,0.1659,0.1635,0.1619,0.1603,0.158,0.1558,0.1541,0.1534,0.1528,0.1535,0.1525,0.1509,0.1505,0.1502,0.1504,0.1533,0.1533,0.1545,0.1545,0.1546]},{"header":{"parameterUnit":"m.s-1","parameterCategory":1,"la1":30.2991,"la2":30.254,"lo1":-89.0895,"lo2":-89.0444,"dy":0.0017,"dx":0.0017,"nx":28,"ny":28,"refTime":"2025-04-11T09:00:00:Z","depth":0,"parameterNumber":3,"parameterNumberName":"V-component_of_WINDS"},"data":[0,0,0,0,0,0,0,0,0,0,0,0,0,0,0,0,0,0,0,0,0,0,0,0,0,0,0,0,0,0,0,0,0,0,0,0,0,0,0,0,0,0,0,0,0,0,0,0,0,0,0,0,0,0,0,0,0,0,-3.318,-3.3181,0,-3.328,-3.3281,-3.3282,-3.3246,-3.3244,-3.3242,-3.324,-3.3338,-3.3343,-3.3347,0,0,0,0,0,0,0,0,0,0,0,0,0,-3.2954,-3.2958,-3.318,-3.3181,-3.3182,-3.3279,-3.3281,-3.3282,-3.3247,-3.3244,-3.3241,-3.3239,-3.3337,-3.3342,-3.3348,0,0,0,0,0,0,0,0,0,0,0,0,0,-3.3053,-3.296,-3.3179,-3.3176,-3.3177,-3.3279,-3.3281,-3.3283,-3.3247,-3.3244,-3.3241,-3.3237,-3.3335,-3.3341,-3.3348,-3.3458,0,0,-3.337,-3.3373,0,0,0,0,0,0,0,0,-3.3047,-3.3061,-3.3176,-3.3177,-3.3178,-3.3247,-3.3237,-3.3341,-3.3248,-3.322,-3.324,-3.3236,-3.331,-3.3319,-3.3345,-3.3463,-3.3467,-3.3371,-3.3375,-3.3378,-3.338,0,0,0,0,0,0,0,-3.304,-3.3057,-3.3219,-3.3177,-3.3179,-3.3169,-3.3179,-3.3257,-3.3283,-3.3223,-3.322,-3.3233,-3.331,-3.3338,-3.3347,-3.3469,-3.337,-3.3377,-3.3381,-3.3384,-3.368,-3.3684,0,0,0,0,0,0,-3.3034,-3.3051,-3.3216,-3.3222,-3.3103,-3.3175,-3.3187,-3.3228,-3.3282,-3.3287,-3.3236,-3.3231,-3.3328,-3.3339,-3.335,-3.3482,-3.3378,-3.3384,-3.3388,-3.3677,-3.3681,-3.3685,0,0,0,0,0,0,-3.3029,-3.3049,-3.3212,-3.3136,-3.3156,-3.3183,-3.3229,-3.3232,-3.326,-3.3292,-3.3296,-3.326,-3.3326,-3.334,-3.3432,-3.3485,-3.3388,-3.3394,-3.3673,-3.3678,-3.3683,-3.3746,0,0,0,0,0,0,-3.3023,-3.3047,-3.309,-3.3137,-3.316,-3.3293,-3.3233,-3.3236,-3.3273,-3.3267,-3.3315,-3.332,-3.3324,-3.3422,-3.3439,-3.3492,-3.3399,-3.3668,-3.3675,-3.3682,-3.3739,-3.3753,-3.3764,0,0,0,0,0,-3.3015,-3.3103,-3.3093,-3.3113,-3.3215,-3.3296,-3.3309,-3.3313,-3.3277,-3.332,-3.334,-3.3319,-3.3476,-3.3431,-3.345,-3.3507,-3.3665,-3.3673,-3.3681,-3.3733,-3.375,-3.3764,0,0,0,0,0,0,-3.306,-3.3109,-3.3098,-3.3205,-3.3247,-3.329,-3.3344,-3.3331,-3.3383,-3.3376,-3.3377,-3.3389,-3.3482,-3.3504,-3.3453,-3.3615,-3.3565,-3.3577,-3.3598,-3.3614,-3.3627,-3.3619,-3.3405,0,0,0,0,0,-3.3083,-3.3147,-3.3185,-3.3276,-3.3298,-3.3318,-3.3353,-3.3353,-3.3396,-3.3413,-3.344,-3.3481,-3.354,-3.3578,-3.3634,-3.3742,-3.3751,-3.3791,-3.3803,-3.3813,-3.3824,-3.3881,-3.3899,-3.3712,-3.3712,-3.3712,0,0,-3.313,-3.3165,-3.3205,-3.3286,-3.3318,-3.3382,-3.3333,-3.3403,-3.345,-3.3423,-3.3511,-3.3532,-3.3578,-3.3678,-3.3724,-3.3699,-3.3877,-3.3824,-3.3832,-3.3837,-3.3891,-3.3909,-3.3925,-3.3718,-3.3717,-3.3716,0,0,-3.3249,-3.3282,-3.3361,-3.3395,-3.3445,-3.3457,-3.3476,-3.3522,-3.3535,-3.3624,-3.3605,-3.366,-3.3762,-3.3795,-3.3825,-3.3956,-3.3938,-3.3974,-3.404,-3.4096,-3.4111,-3.4123,-3.4169,-3.4185,-3.3985,-3.3985,-3.3985,0,-3.3301,-3.3398,-3.3403,-3.3475,-3.351,-3.349,-3.3569,-3.3601,-3.3666,-3.369,-3.3662,-3.3789,-3.3819,-3.3925,-3.3957,-3.3983,-3.4003,-3.3968,-3.4108,-3.4121,-3.4134,-3.4177,-3.4194,-3.3989,-3.3989,-3.3988,-3.3988,0,-3.3459,-3.3527,-3.3584,-3.3649,-3.3691,-3.3766,-3.378,-3.3822,-3.3818,-3.3833,-3.3922,-3.3957,-3.4019,-3.4045,-3.4041,-3.4151,-3.4134,-3.4108,-3.4056,-3.4155,-3.4196,-3.4212,-3.3995,-3.3993,-3.3992,-3.3991,0,0,-3.3609,-3.3675,-3.3696,-3.3725,-3.3779,-3.383,-3.3903,-3.3965,-3.4001,-3.4046,-3.4107,-3.4193,-3.4168,-3.4203,-3.4203,-3.4252,-3.4352,-3.4219,-3.422,-3.4241,-3.4473,-3.4492,-3.4511,-3.434,-3.4344,-3.4346,-3.4469,0,-3.3731,-3.3861,-3.3867,-3.3984,-3.4046,-3.4028,-3.4091,-3.4131,-3.4147,-3.42,-3.4217,-3.4278,-3.4242,-3.4262,-3.431,-3.4329,-3.4398,-3.4321,-3.4394,-3.4397,-3.4382,-3.4532,-3.4553,-3.4667,-3.4485,-3.4487,-3.4489,0,-3.389,-3.3942,-3.4066,-3.4111,-3.4137,-3.4194,-3.4251,-3.4303,-3.4346,-3.4354,-3.4393,-3.4385,-3.4458,-3.4406,-3.4506,-3.4453,-3.4483,-3.4497,-3.4502,-3.4508,-3.4448,-3.4541,-3.4703,-3.472,-3.4514,-3.4512,-3.4511,0,-3.3985,-3.4086,-3.4173,-3.4198,-3.4253,-3.4293,-3.4317,-3.4358,-3.4394,-3.4443,-3.4467,-3.4524,-3.4554,-3.4597,-3.4605,-3.4566,-3.4704,-3.4653,-3.4711,-3.4711,-3.474,-3.4738,-3.4908,-3.4763,-3.4762,-3.4762,-3.4762,0,-3.412,-3.4196,-3.4216,-3.427,-3.4354,-3.436,-3.4443,-3.4464,-3.45,-3.4556,-3.4543,-3.4596,-3.4603,-3.4657,-3.4663,-3.4744,-3.4758,-3.4765,-3.4766,-3.4766,-3.4765,-3.4785,-3.4776,-3.4767,-3.4766,-3.4765,-3.4764,0,-3.424,-3.4257,-3.435,-3.4394,-3.4407,-3.4467,-3.4504,-3.4554,-3.4569,-3.464,-3.4657,-3.468,-3.4742,-3.4755,-3.4828,-3.4832,-3.4928,-3.4921,-3.4914,-3.4913,-3.497,-3.4964,-3.5158,-3.5183,-3.5022,-3.5024,-3.5025,0,-3.4324,-3.4383,-3.4433,-3.4471,-3.4497,-3.4557,-3.4595,-3.4602,-3.4641,-3.4695,-3.4738,-3.48,-3.4849,-3.495,-3.4972,-3.5028,-3.5021,-3.5086,-3.5029,-3.5027,-3.502,-3.5016,-3.5021,-3.5096,-3.5097,-3.5099,-3.51,0,-3.4472,-3.4477,-3.4532,-3.4591,-3.4636,-3.4682,-3.4725,-3.4756,-3.4769,-3.4813,-3.4878,-3.4917,-3.4992,-3.5053,-3.5109,-3.5131,-3.5117,-3.5118,-3.5134,-3.5134,-3.5126,-3.5129,-3.4941,-3.5113,-3.5112,-3.5111,-3.511,-3.5109,-3.4576,-3.4626,-3.467,-3.4731,-3.4765,-3.4806,-3.4855,-3.4876,-3.4931,-3.4994,-3.4994,-3.5064,-3.5105,-3.5179,-3.5205,-3.5259,-3.5238,-3.5262,-3.5268,-3.5273,-3.5278,-3.5119,-3.5269,-3.5269,-3.5269,-3.5268,-3.5268,0,-3.4721,-3.4748,-3.4805,-3.4866,-3.4915,-3.4899,-3.4946,-3.4987,-3.5049,-3.5089,-3.5138,-3.5211,-3.527,-3.5297,-3.5354,-3.5392,-3.5387,-3.5407,-3.5403,-3.5408,-3.5294,-3.5274,-3.541,-3.541,-3.541,-3.541,-3.5409,-3.5409,-3.4802,-3.4887,-3.4897,-3.4998,-3.5024,-3.5093,-3.5121,-3.5158,-3.519,-3.5273,-3.5322,-3.534,-3.5374,-3.5433,-3.5486,-3.5492,-3.5513,-3.5535,-3.5538,-3.5431,-3.5416,-3.5403,-3.5383,-3.554,-3.554,-3.5647,-3.5648,-3.5649]}]]